Погода в Куликове

Россия / Липецкая область     52°13′40″N   39°34′28″E
темп.,
°C
ветер,
м/с
пор.,
м/с
влажн.,
%
обл.,
%
осадки,
мм/ч
давл.,
гПа
погр.,
м
19 сентября, вс
вс1900:00+7вюв51286100 1.4 1020489
03:00+7вюв51381100 1.8 1019502
06:00+8в51476100 0.0 1018645
09:00+8в61578100 0.9 1017626
12:00+11вюв61460100 0.4 1016947
15:00+10вюв71576100 1.3 1015827
18:00+9вюв81690100 4.1 1013837
21:00+10вюв81888100 11.7 1011969
20 сентября, пн
пн2000:00+9вюв61592100 4.3 1011969
03:00+11юв51292100 5.6 1009755
06:00+11юв51194100 0.0 1009576
09:00+10вюв4994100 0.1 1009412
12:00+15вюв4582100 0.0 1009706
15:00+13в51092100 0.9 1008422
18:00+12юв239596 1.3 1009173
21:00+10зюз259298 1.3 1011200
21 сентября, вт
вт2100:00+8ююз228851 0.0 101250
03:00+9ююв2686100 0.0 1012160
06:00+9ююв268599 0.0 1011161
09:00+12ююв247098 0.0 1012400
12:00+14ю2358100 0.0 10111097
15:00+14юз2468100 0.4 1010477
18:00+11зсз2585100 0.6 1010231
21:00+9зсз2591100 0.6 1010202
22 сентября, ср
ср2200:00+9з2490100 0.0 1010198
03:00+8зюз3590100 0.0 1010287
06:00+8зюз2588100 0.0 1010326
09:00+8зюз3586100 0.0 1011524
12:00+9юз4477100 0.0 1012820
15:00+9юз3468100 0.1 10121100
18:00+8юз3579100 0.0 1014444
21:00+7ююз2584100 0.1 1015381
23 сентября, чт
чт2300:00+7ююз2484100 0.0 1015393
03:00+7ю1387100 0.0 1015201
06:00+7ю2486100 0.0 1016245
09:00+9ю2472100 0.0 1016738
12:00+11ю3454100 0.1 10161464
15:00+11ююз2453100 0.1 10161265
18:00+10зюз0061100 0.0 101610
21:00+8всв226694 0.0 101532